TimeMDT,TemperatureF,Dew PointF,Humidity,Sea Level PressureIn,VisibilityMPH,Wind Direction,Wind SpeedMPH,Gust SpeedMPH,PrecipitationIn,Events,Conditions,WindDirDegrees,DateUTC
12:53 AM,62.1,57.0,84,29.96,10.0,Calm,Calm,-,N/A,,Partly Cloudy,0,2013-08-03 06:53:00
1:07 AM,60.8,57.2,88,30.09,10.0,Calm,Calm,-,N/A,Thunderstorm,Clear,0,2013-08-03 07:07:00
1:21 AM,60.8,57.2,88,30.09,10.0,NNW,5.8,-,N/A,Thunderstorm,Scattered Clouds,340,2013-08-03 07:21:00
1:42 AM,60.8,57.2,88,30.11,10.0,Calm,Calm,-,N/A,,Mostly Cloudy,0,2013-08-03 07:42:00
1:53 AM,60.1,57.0,90,29.98,10.0,Calm,Calm,-,N/A,,Mostly Cloudy,0,2013-08-03 07:53:00
2:53 AM,61.0,57.0,87,29.98,10.0,East,4.6,-,N/A,,Mostly Cloudy,80,2013-08-03 08:53:00
3:53 AM,61.0,57.0,87,29.98,10.0,East,3.5,-,N/A,,Overcast,100,2013-08-03 09:53:00
4:04 AM,60.8,57.2,88,30.12,10.0,East,4.6,-,N/A,,Overcast,80,2013-08-03 10:04:00
4:31 AM,60.8,57.2,88,30.11,10.0,East,3.5,-,N/A,,Scattered Clouds,80,2013-08-03 10:31:00
4:53 AM,59.0,57.0,93,30.00,10.0,ENE,5.8,-,N/A,,Partly Cloudy,60,2013-08-03 10:53:00
5:07 AM,60.8,57.2,88,30.13,10.0,ENE,4.6,-,N/A,,Mostly Cloudy,60,2013-08-03 11:07:00
5:53 AM,60.1,59.0,96,30.00,10.0,Calm,Calm,-,N/A,,Overcast,0,2013-08-03 11:53:00
6:18 AM,60.8,57.2,88,30.14,10.0,ESE,3.5,-,N/A,,Overcast,120,2013-08-03 12:18:00
6:53 AM,61.0,59.0,93,30.04,10.0,East,3.5,-,N/A,,Mostly Cloudy,90,2013-08-03 12:53:00
7:16 AM,62.6,59.0,88,30.15,10.0,Calm,Calm,-,N/A,,Mostly Cloudy,0,2013-08-03 13:16:00
7:41 AM,62.6,59.0,88,30.16,10.0,Calm,Calm,-,N/A,,Mostly Cloudy,0,2013-08-03 13:41:00
7:53 AM,62.1,59.0,90,30.06,10.0,Calm,Calm,-,N/A,,Mostly Cloudy,0,2013-08-03 13:53:00
8:31 AM,64.4,55.4,73,30.17,10.0,South,9.2,-,N/A,,Overcast,170,2013-08-03 14:31:00
8:53 AM,66.9,55.9,68,30.06,10.0,South,6.9,-,N/A,,Mostly Cloudy,180,2013-08-03 14:53:00
9:53 AM,69.1,57.0,65,30.07,10.0,SSE,11.5,-,N/A,,Overcast,160,2013-08-03 15:53:00
10:53 AM,72.0,59.0,64,30.05,10.0,South,11.5,-,N/A,,Overcast,170,2013-08-03 16:53:00
11:21 AM,73.4,60.8,65,30.17,10.0,SSE,12.7,-,N/A,,Mostly Cloudy,160,2013-08-03 17:21:00
11:53 AM,73.0,60.1,64,30.05,10.0,SE,13.8,-,N/A,,Mostly Cloudy,140,2013-08-03 17:53:00
12:21 PM,73.4,60.8,65,30.16,10.0,South,16.1,-,N/A,,Scattered Clouds,170,2013-08-03 18:21:00
12:53 PM,75.9,60.1,58,30.02,10.0,SE,10.4,-,N/A,,Partly Cloudy,140,2013-08-03 18:53:00
1:53 PM,78.1,60.1,54,30.01,10.0,SSE,15.0,21.9,N/A,,Mostly Cloudy,160,2013-08-03 19:53:00
2:53 PM,80.1,57.9,47,29.98,10.0,SSE,21.9,27.6,N/A,,Scattered Clouds,150,2013-08-03 20:53:00
3:53 PM,80.1,57.0,45,29.96,10.0,SE,15.0,25.3,N/A,,Scattered Clouds,140,2013-08-03 21:53:00
4:53 PM,77.0,55.9,48,29.95,10.0,SSE,15.0,-,N/A,,Clear,150,2013-08-03 22:53:00
5:53 PM,81.0,55.9,42,29.91,10.0,SE,18.4,-,N/A,,Clear,140,2013-08-03 23:53:00
6:53 PM,79.0,57.0,47,29.90,10.0,SE,25.3,34.5,N/A,,Clear,140,2013-08-04 00:53:00
7:41 PM,73.4,62.6,69,30.01,10.0,SE,16.1,29.9,0.00,Thunderstorm,Partly Cloudy,140,2013-08-04 01:41:00
7:53 PM,72.0,63.0,73,29.90,10.0,SE,11.5,21.9,0.00,,Partly Cloudy,130,2013-08-04 01:53:00
8:53 PM,71.1,60.1,68,29.91,10.0,South,18.4,29.9,N/A,,Scattered Clouds,170,2013-08-04 02:53:00
9:53 PM,69.1,60.1,73,29.94,10.0,NE,12.7,-,N/A,,Partly Cloudy,50,2013-08-04 03:53:00
10:53 PM,70.0,61.0,73,29.97,10.0,ESE,10.4,-,N/A,,Mostly Cloudy,120,2013-08-04 04:53:00
11:17 PM,69.8,60.8,73,30.10,10.0,East,9.2,-,N/A,,Overcast,90,2013-08-04 05:17:00
11:53 PM,66.9,62.1,84,29.96,10.0,ESE,10.4,-,N/A,,Partly Cloudy,110,2013-08-04 05:53:00